| time (UTC) | temp F | wind direction | speed knots | gust knots | rain 1hr in | rain 24hr in | rain mn in | humidity % | barometer mb |
| 20260508041649 | 50 | 268 | 1.7 | 5.2 | 0.00 | 0.00 | 0.00 | 86 | 1017.9 |
| 20260508041149 | 50 | 257 | 1.7 | 5.2 | 0.00 | 0.00 | 0.00 | 86 | 1017.9 |
| 20260508040649 | 50 | 262 | 2.6 | 6.1 | 0.00 | 0.00 | 0.00 | 86 | 1018.0 |
| 20260508040149 | 50 | 294 | 2.6 | 6.1 | 0.00 | 0.00 | 0.00 | 86 | 1017.9 |
| 20260508035649 | 51 | 268 | 2.6 | 3.5 | 0.00 | 0.00 | 0.00 | 86 | 1018.0 |
| 20260508035149 | 51 | 285 | 2.6 | 4.3 | 0.00 | 0.00 | 0.00 | 86 | 1018.0 |
| 20260508034648 | 51 | 265 | 2.6 | 5.2 | 0.00 | 0.00 | 0.00 | 85 | 1017.9 |
| 20260508034148 | 51 | 253 | 2.6 | 5.2 | 0.00 | 0.00 | 0.00 | 85 | 1017.9 |
| 20260508033149 | 51 | 259 | 1.7 | 4.3 | 0.00 | 0.00 | 0.00 | 85 | 1017.8 |
| 20260508032648 | 51 | 252 | 1.7 | 6.1 | 0.00 | 0.00 | 0.00 | 84 | 1017.8 |
| 20260508032148 | 52 | 281 | 3.5 | 6.1 | 0.00 | 0.00 | 0.00 | 84 | 1017.8 |
| 20260508031648 | 52 | 262 | 3.5 | 5.2 | 0.00 | 0.00 | 0.00 | 84 | 1017.9 |
| 20260508031148 | 52 | 263 | 2.6 | 5.2 | 0.00 | 0.00 | 0.00 | 84 | 1017.8 |
| 20260508030648 | 52 | 257 | 0.9 | 5.2 | 0.00 | 0.00 | 0.00 | 84 | 1017.8 |
| 20260508030148 | 52 | 288 | 3.5 | 7.0 | 0.00 | 0.00 | 0.00 | 83 | 1017.9 |
| 20260508025648 | 52 | 254 | 2.6 | 7.0 | 0.00 | 0.00 | 0.00 | 83 | 1017.9 |
| 20260508025147 | 53 | 275 | 2.6 | 7.8 | 0.00 | 0.00 | 0.00 | 83 | 1017.9 |
| 20260508024647 | 53 | 251 | 1.7 | 7.8 | 0.00 | 0.00 | 0.00 | 82 | 1018.0 |
| 20260508024147 | 53 | 267 | 3.5 | 7.8 | 0.00 | 0.00 | 0.00 | 82 | 1018.0 |
| 20260508023647 | 53 | 288 | 6.1 | 7.8 | 0.00 | 0.00 | 0.00 | 81 | 1018.0 |
| 20260508023147 | 54 | 241 | 3.5 | 7.8 | 0.00 | 0.00 | 0.00 | 81 | 1018.1 |
| 20260508022647 | 54 | 278 | 2.6 | 7.0 | 0.00 | 0.00 | 0.00 | 81 | 1018.1 |
| 20260508022147 | 54 | 250 | 3.5 | 7.8 | 0.00 | 0.00 | 0.00 | 81 | 1018.2 |
| 20260508021647 | 54 | 293 | 3.5 | 7.8 | 0.00 | 0.00 | 0.00 | 81 | 1018.2 |
| 20260508021147 | 54 | 281 | 3.5 | 6.1 | 0.00 | 0.00 | 0.00 | 81 | 1018.2 |
| 20260508020647 | 54 | 298 | 4.3 | 6.1 | 0.00 | 0.00 | 0.00 | 81 | 1018.2 |
| 20260508020147 | 55 | 317 | 3.5 | 6.1 | 0.00 | 0.00 | 0.00 | 80 | 1018.2 |
| 20260508015647 | 55 | 292 | 3.5 | 7.8 | 0.00 | 0.00 | 0.00 | 78 | 1018.2 |
| 20260508014647 | 56 | 287 | 4.3 | 6.1 | 0.00 | 0.00 | 0.00 | 75 | 1018.3 |
| 20260508014146 | 57 | 268 | 1.7 | 6.1 | 0.00 | 0.00 | 0.00 | 75 | 1018.3 |
| 20260508013646 | 57 | 339 | 1.7 | 6.1 | 0.00 | 0.00 | 0.00 | 74 | 1018.4 |
| 20260508013146 | 58 | 274 | 1.7 | 5.2 | 0.00 | 0.00 | 0.00 | 73 | 1018.5 |
| 20260508012646 | 58 | 301 | 1.7 | 5.2 | 0.00 | 0.00 | 0.00 | 73 | 1018.4 |
| 20260508012146 | 59 | 275 | 1.7 | 4.3 | 0.00 | 0.00 | 0.00 | 72 | 1018.4 |
| 20260508011646 | 59 | 13 | 2.6 | 3.5 | 0.00 | 0.00 | 0.00 | 70 | 1018.5 |
| 20260508011146 | 59 | 9 | 1.7 | 2.6 | 0.00 | 0.00 | 0.00 | 70 | 1018.6 |
| 20260508010646 | 59 | 15 | 2.6 | 2.6 | 0.00 | 0.00 | 0.00 | 70 | 1018.6 |
| 20260508010145 | 59 | 18 | 0.0 | 2.6 | 0.00 | 0.00 | 0.00 | 71 | 1018.6 |
| 20260508005646 | 59 | 46 | 1.7 | 2.6 | 0.00 | 0.00 | 0.00 | 71 | 1018.6 |
| 20260508005145 | 59 | 8 | 0.0 | 2.6 | 0.00 | 0.00 | 0.00 | 71 | 1018.6 |
| 20260508004645 | 59 | 357 | 1.7 | 2.6 | 0.00 | 0.00 | 0.00 | 72 | 1018.6 |
| 20260508004145 | 59 | 63 | 0.9 | 2.6 | 0.00 | 0.00 | 0.00 | 70 | 1018.6 |
| 20260508003646 | 59 | 58 | 1.7 | 2.6 | 0.00 | 0.00 | 0.00 | 71 | 1018.7 |
| 20260508003145 | 59 | 91 | 0.0 | 1.7 | 0.00 | 0.00 | 0.00 | 72 | 1018.7 |
| 20260508002645 | 59 | 77 | 0.0 | 2.6 | 0.00 | 0.00 | 0.00 | 71 | 1018.7 |
| 20260508002145 | 59 | 77 | 0.9 | 2.6 | 0.00 | 0.00 | 0.00 | 72 | 1018.7 |
| 20260508001645 | 59 | 88 | 2.6 | 2.6 | 0.00 | 0.00 | 0.00 | 71 | 1018.8 |
| 20260508001145 | 59 | 73 | 2.6 | 2.6 | 0.00 | 0.00 | 0.00 | 71 | 1018.8 |
| 20260508000645 | 59 | 82 | 1.7 | 3.5 | 0.00 | 0.00 | 0.00 | 70 | 1018.8 |
| 20260507235645 | 58 | 96 | 0.0 | 2.6 | 0.00 | 0.00 | 0.00 | 73 | 1018.8 |
| 20260507235144 | 58 | 35 | 0.9 | 2.6 | 0.00 | 0.00 | 0.00 | 72 | 1018.8 |
| 20260507234644 | 58 | 29 | 1.7 | 2.6 | 0.00 | 0.00 | 0.00 | 72 | 1018.8 |
| 20260507234144 | 58 | 29 | 1.7 | 2.6 | 0.00 | 0.00 | 0.00 | 72 | 1018.8 |
| 20260507233644 | 58 | 85 | 1.7 | 2.6 | 0.00 | 0.00 | 0.00 | 72 | 1018.8 |
| 20260507233144 | 58 | 83 | 1.7 | 2.6 | 0.00 | 0.00 | 0.00 | 73 | 1018.9 |
| 20260507232644 | 58 | 53 | 0.9 | 2.6 | 0.00 | 0.00 | 0.00 | 73 | 1018.9 |
| 20260507231644 | 58 | 46 | 0.9 | 3.5 | 0.00 | 0.00 | 0.00 | 74 | 1019.0 |
| 20260507231143 | 58 | 68 | 1.7 | 3.5 | 0.00 | 0.00 | 0.00 | 74 | 1019.1 |
| 20260507230144 | 57 | 66 | 0.9 | 3.5 | 0.00 | 0.00 | 0.00 | 75 | 1019.2 |
| 20260507225644 | 57 | 35 | 0.9 | 3.5 | 0.00 | 0.00 | 0.00 | 75 | 1019.2 |
| 20260507225144 | 58 | 27 | 2.6 | 3.5 | 0.00 | 0.00 | 0.00 | 75 | 1019.3 |
| 20260507224643 | 58 | 63 | 0.0 | 4.3 | 0.00 | 0.00 | 0.00 | 75 | 1019.3 |
| 20260507224143 | 57 | 73 | 0.9 | 4.3 | 0.00 | 0.00 | 0.00 | 74 | 1019.4 |
| 20260507223643 | 57 | 85 | 0.9 | 4.3 | 0.00 | 0.00 | 0.00 | 75 | 1019.4 |
| 20260507223143 | 57 | 359 | 1.7 | 4.3 | 0.00 | 0.00 | 0.00 | 74 | 1019.5 |
| 20260507222643 | 57 | 82 | 0.9 | 4.3 | 0.00 | 0.00 | 0.00 | 74 | 1019.5 |
| 20260507222143 | 57 | 39 | 0.9 | 3.5 | 0.00 | 0.00 | 0.00 | 77 | 1019.6 |
| 20260507221643 | 57 | 85 | 0.9 | 3.5 | 0.00 | 0.00 | 0.00 | 76 | 1019.6 |
| 20260507220642 | 57 | 98 | 2.6 | 4.3 | 0.00 | 0.00 | 0.00 | 75 | 1019.8 |
| 20260507220143 | 57 | 81 | 2.6 | 4.3 | 0.00 | 0.00 | 0.00 | 74 | 1019.8 |
| 20260507215142 | 58 | 23 | 2.6 | 4.3 | 0.00 | 0.00 | 0.00 | 74 | 1020.0 |
| 20260507214643 | 58 | 86 | 0.9 | 3.5 | 0.00 | 0.00 | 0.00 | 74 | 1019.9 |
| 20260507214142 | 58 | 83 | 2.6 | 4.3 | 0.00 | 0.00 | 0.00 | 74 | 1020.0 |
| 20260507213642 | 58 | 70 | 2.6 | 4.3 | 0.00 | 0.00 | 0.00 | 71 | 1020.1 |
| 20260507213142 | 58 | 95 | 2.6 | 4.3 | 0.00 | 0.00 | 0.00 | 72 | 1020.1 |
| 20260507212642 | 58 | 82 | 1.7 | 4.3 | 0.00 | 0.00 | 0.00 | 74 | 1020.1 |
| 20260507212142 | 58 | 104 | 2.6 | 4.3 | 0.00 | 0.00 | 0.00 | 73 | 1020.3 |
| 20260507211142 | 57 | 48 | 0.0 | 4.3 | 0.00 | 0.00 | 0.00 | 73 | 1020.4 |
| 20260507210641 | 57 | 84 | 1.7 | 4.3 | 0.00 | 0.00 | 0.00 | 75 | 1020.4 |
| 20260507205641 | 56 | 53 | 1.7 | 5.2 | 0.00 | 0.00 | 0.00 | 77 | 1020.6 |
| 20260507205141 | 56 | 89 | 2.6 | 5.2 | 0.00 | 0.00 | 0.00 | 76 | 1020.6 |
| 20260507204141 | 56 | 52 | 3.5 | 6.1 | 0.00 | 0.00 | 0.00 | 77 | 1020.7 |
| 20260507203641 | 55 | 40 | 2.6 | 4.3 | 0.00 | 0.00 | 0.00 | 76 | 1020.8 |
| 20260507203141 | 55 | 80 | 1.7 | 5.2 | 0.00 | 0.00 | 0.00 | 77 | 1020.9 |
| 20260507202641 | 56 | 34 | 1.7 | 6.1 | 0.00 | 0.00 | 0.00 | 76 | 1020.9 |
| 20260507202141 | 55 | 46 | 1.7 | 6.1 | 0.00 | 0.00 | 0.00 | 77 | 1021.0 |
| 20260507201141 | 54 | 24 | 3.5 | 6.1 | 0.00 | 0.00 | 0.00 | 77 | 1021.0 |
| 20260507200641 | 54 | 22 | 3.5 | 5.2 | 0.00 | 0.00 | 0.00 | 77 | 1021.1 |
| 20260507200211 | 54 | 25 | 3.5 | 4.3 | 0.00 | 0.00 | 0.00 | 78 | 1021.1 |
| 20260507195640 | 55 | 8 | 2.6 | 4.3 | 0.00 | 0.00 | 0.00 | 77 | 1021.1 |
| 20260507195141 | 54 | 338 | 0.9 | 6.1 | 0.00 | 0.00 | 0.00 | 79 | 1021.1 |
| 20260507194641 | 54 | 3 | 1.7 | 6.1 | 0.00 | 0.00 | 0.00 | 79 | 1021.1 |
| 20260507194140 | 54 | 78 | 1.7 | 6.1 | 0.00 | 0.00 | 0.00 | 79 | 1021.1 |
| 20260507193641 | 54 | 129 | 0.9 | 6.1 | 0.00 | 0.00 | 0.00 | 79 | 1021.2 |
| 20260507193141 | 54 | 28 | 3.5 | 7.0 | 0.00 | 0.00 | 0.00 | 78 | 1021.2 |
| 20260507192640 | 54 | 37 | 4.3 | 7.0 | 0.00 | 0.00 | 0.00 | 78 | 1021.3 |
| 20260507192140 | 55 | 88 | 1.7 | 5.2 | 0.00 | 0.00 | 0.00 | 77 | 1021.3 |
| 20260507191640 | 54 | 22 | 2.6 | 5.2 | 0.00 | 0.00 | 0.00 | 78 | 1021.3 |
| 20260507191140 | 54 | 87 | 0.9 | 5.2 | 0.00 | 0.00 | 0.00 | 77 | 1021.4 |
| 20260507190640 | 54 | 62 | 1.7 | 6.1 | 0.00 | 0.00 | 0.00 | 78 | 1021.4 |
| 20260507190140 | 54 | 22 | 1.7 | 6.1 | 0.00 | 0.00 | 0.00 | 79 | 1021.4 |
| 20260507185640 | 53 | 27 | 3.5 | 6.1 | 0.00 | 0.00 | 0.00 | 78 | 1021.4 |
| 20260507185140 | 54 | 20 | 4.3 | 7.8 | 0.00 | 0.00 | 0.00 | 78 | 1021.4 |
| 20260507184639 | 53 | 65 | 2.6 | 7.8 | 0.00 | 0.00 | 0.00 | 79 | 1021.5 |
| 20260507184139 | 54 | 66 | 1.7 | 6.1 | 0.00 | 0.00 | 0.00 | 78 | 1021.5 |
| 20260507183639 | 54 | 63 | 3.5 | 6.1 | 0.00 | 0.00 | 0.00 | 77 | 1021.5 |
| 20260507182639 | 54 | 11 | 0.9 | 3.5 | 0.00 | 0.00 | 0.00 | 78 | 1021.6 |
| 20260507182139 | 53 | 221 | 0.0 | 6.1 | 0.00 | 0.00 | 0.00 | 80 | 1021.6 |
| 20260507181639 | 53 | 51 | 2.6 | 6.1 | 0.00 | 0.00 | 0.00 | 79 | 1021.7 |
| 20260507181139 | 53 | 84 | 3.5 | 5.2 | 0.00 | 0.00 | 0.00 | 79 | 1021.7 |
| 20260507180638 | 53 | 40 | 1.7 | 5.2 | 0.00 | 0.00 | 0.00 | 78 | 1021.7 |
| 20260507175638 | 53 | 58 | 3.5 | 5.2 | 0.00 | 0.00 | 0.00 | 79 | 1021.7 |
| 20260507175138 | 53 | 41 | 2.6 | 4.3 | 0.00 | 0.00 | 0.00 | 78 | 1021.7 |
| 20260507174639 | 54 | 17 | 1.7 | 6.1 | 0.00 | 0.00 | 0.00 | 78 | 1021.7 |
| 20260507173638 | 54 | 11 | 3.5 | 5.2 | 0.00 | 0.00 | 0.00 | 76 | 1021.7 |
| 20260507173138 | 54 | 360 | 2.6 | 7.8 | 0.00 | 0.00 | 0.00 | 78 | 1021.7 |
| 20260507172638 | 53 | 321 | 2.6 | 7.8 | 0.00 | 0.00 | 0.00 | 77 | 1021.7 |
| 20260507172138 | 53 | 337 | 3.5 | 7.0 | 0.00 | 0.00 | 0.00 | 77 | 1021.6 |
| 20260507171638 | 53 | 23 | 2.6 | 8.7 | 0.00 | 0.00 | 0.00 | 77 | 1021.6 |
| 20260507171138 | 54 | 45 | 6.1 | 8.7 | 0.00 | 0.00 | 0.00 | 76 | 1021.6 |
| 20260507170637 | 54 | 321 | 0.9 | 4.3 | 0.00 | 0.00 | 0.00 | 78 | 1021.6 |
| 20260507165638 | 53 | 61 | 0.0 | 5.2 | 0.00 | 0.01 | 0.00 | 79 | 1021.5 |
| 20260507165207 | 53 | 7 | 1.7 | 5.2 | 0.00 | 0.01 | 0.00 | 79 | 1021.6 |
| 20260507164707 | 53 | 261 | 3.5 | 4.3 | 0.00 | 0.01 | 0.00 | 78 | 1021.6 |
| 20260507164207 | 53 | 311 | 0.0 | 4.3 | 0.00 | 0.01 | 0.00 | 80 | 1021.6 |
| 20260507163707 | 53 | 35 | 1.7 | 4.3 | 0.00 | 0.01 | 0.00 | 80 | 1021.6 |
| 20260507163137 | 52 | 41 | 0.9 | 2.6 | 0.00 | 0.01 | 0.00 | 81 | 1021.7 |
| 20260507162137 | 52 | 324 | 1.7 | 3.5 | 0.00 | 0.01 | 0.00 | 82 | 1021.6 |
| 20260507161707 | 52 | 311 | 0.9 | 3.5 | 0.00 | 0.01 | 0.00 | 81 | 1021.7 |
| 20260507160637 | 51 | 320 | 0.0 | 4.3 | 0.00 | 0.01 | 0.00 | 82 | 1021.6 |
| 20260507160207 | 51 | 285 | 1.7 | 5.2 | 0.00 | 0.01 | 0.00 | 82 | 1021.7 |
| 20260507155136 | 51 | 308 | 3.5 | 3.5 | 0.00 | 0.01 | 0.00 | 83 | 1021.8 |
| 20260507154637 | 50 | 278 | 2.6 | 5.2 | 0.00 | 0.01 | 0.00 | 82 | 1021.8 |
| 20260507154136 | 50 | 289 | 3.5 | 5.2 | 0.00 | 0.01 | 0.00 | 82 | 1021.8 |
| 20260507153707 | 50 | 304 | 3.5 | 3.5 | 0.00 | 0.01 | 0.00 | 83 | 1021.9 |
| 20260507153136 | 50 | 260 | 0.0 | 4.3 | 0.00 | 0.01 | 0.00 | 83 | 1021.9 |
| 20260507152706 | 50 | 291 | 1.7 | 4.3 | 0.00 | 0.01 | 0.00 | 83 | 1021.9 |
| 20260507151636 | 50 | 240 | 0.9 | 5.2 | 0.00 | 0.01 | 0.00 | 83 | 1021.9 |
| 20260507151136 | 50 | 286 | 2.6 | 5.2 | 0.00 | 0.01 | 0.00 | 83 | 1021.8 |
| 20260507150706 | 50 | 259 | 1.7 | 4.3 | 0.00 | 0.01 | 0.00 | 82 | 1021.8 |
| 20260507150206 | 50 | 270 | 2.6 | 4.3 | 0.00 | 0.01 | 0.00 | 82 | 1021.8 |
| 20260507145706 | 50 | 297 | 1.7 | 4.3 | 0.00 | 0.01 | 0.00 | 82 | 1021.8 |
| 20260507145135 | 51 | 298 | 1.7 | 3.5 | 0.00 | 0.01 | 0.00 | 82 | 1021.7 |
| 20260507144635 | 51 | 268 | 0.0 | 2.6 | 0.00 | 0.01 | 0.00 | 82 | 1021.7 |
| 20260507144136 | 50 | 277 | 1.7 | 4.3 | 0.00 | 0.01 | 0.00 | 82 | 1021.7 |
| 20260507143705 | 50 | 260 | 0.9 | 4.3 | 0.00 | 0.01 | 0.00 | 83 | 1021.6 |
| 20260507143135 | 50 | 314 | 4.3 | 5.2 | 0.00 | 0.01 | 0.00 | 84 | 1021.6 |
| 20260507142705 | 50 | 288 | 1.7 | 5.2 | 0.00 | 0.01 | 0.00 | 84 | 1021.6 |
| 20260507142205 | 49 | 281 | 1.7 | 3.5 | 0.00 | 0.01 | 0.00 | 84 | 1021.6 |
| 20260507141705 | 49 | 337 | 3.5 | 4.3 | 0.00 | 0.01 | 0.00 | 84 | 1021.5 |
| 20260507141135 | 49 | 300 | 2.6 | 4.3 | 0.00 | 0.01 | 0.00 | 84 | 1021.5 |
| 20260507135705 | 49 | 253 | 2.6 | 6.1 | 0.00 | 0.01 | 0.00 | 85 | 1021.4 |
| 20260507135204 | 49 | 269 | 1.7 | 6.1 | 0.00 | 0.01 | 0.00 | 85 | 1021.4 |
| 20260507134704 | 49 | 273 | 1.7 | 4.3 | 0.00 | 0.01 | 0.00 | 85 | 1021.4 |
| 20260507134204 | 49 | 259 | 1.7 | 6.1 | 0.00 | 0.01 | 0.00 | 85 | 1021.5 |
| 20260507133704 | 49 | 276 | 1.7 | 6.1 | 0.00 | 0.01 | 0.00 | 85 | 1021.4 |
| 20260507133204 | 49 | 279 | 2.6 | 6.1 | 0.00 | 0.01 | 0.00 | 86 | 1021.5 |
| 20260507132704 | 48 | 280 | 2.6 | 5.2 | 0.00 | 0.01 | 0.00 | 86 | 1021.5 |
| 20260507132203 | 48 | 281 | 2.6 | 4.3 | 0.00 | 0.01 | 0.00 | 86 | 1021.5 |
| 20260507131204 | 48 | 287 | 2.6 | 3.5 | 0.00 | 0.01 | 0.00 | 87 | 1021.6 |
| 20260507130704 | 48 | 286 | 2.6 | 4.3 | 0.00 | 0.01 | 0.00 | 87 | 1021.5 |
| 20260507130203 | 48 | 265 | 0.9 | 4.3 | 0.00 | 0.01 | 0.00 | 87 | 1021.5 |
| 20260507125703 | 48 | 281 | 1.7 | 4.3 | 0.00 | 0.01 | 0.00 | 87 | 1021.5 |
| 20260507125203 | 48 | 265 | 1.7 | 5.2 | 0.00 | 0.01 | 0.00 | 87 | 1021.5 |
| 20260507124704 | 48 | 286 | 4.3 | 5.2 | 0.00 | 0.01 | 0.00 | 87 | 1021.6 |
| 20260507124203 | 49 | 258 | 1.7 | 5.2 | 0.00 | 0.01 | 0.00 | 87 | 1021.6 |
| 20260507123703 | 49 | 298 | 0.0 | 7.0 | 0.00 | 0.01 | 0.00 | 87 | 1021.6 |
| 20260507123203 | 49 | 245 | 1.7 | 7.0 | 0.00 | 0.01 | 0.00 | 87 | 1021.6 |
| 20260507122203 | 49 | 292 | 2.6 | 8.7 | 0.00 | 0.01 | 0.00 | 86 | 1021.7 |
| 20260507121702 | 49 | 294 | 2.6 | 5.2 | 0.00 | 0.01 | 0.00 | 86 | 1021.7 |
| 20260507121203 | 49 | 265 | 1.7 | 5.2 | 0.00 | 0.01 | 0.00 | 86 | 1021.8 |
| 20260507120703 | 49 | 233 | 0.9 | 6.1 | 0.00 | 0.01 | 0.00 | 86 | 1021.7 |
| 20260507120202 | 49 | 263 | 0.9 | 6.1 | 0.00 | 0.01 | 0.00 | 86 | 1021.8 |
| 20260507115702 | 49 | 288 | 4.3 | 6.1 | 0.00 | 0.01 | 0.00 | 86 | 1021.8 |
| 20260507115202 | 49 | 282 | 2.6 | 4.3 | 0.00 | 0.01 | 0.00 | 86 | 1021.9 |
| 20260507114702 | 49 | 266 | 1.7 | 6.1 | 0.00 | 0.01 | 0.00 | 86 | 1021.8 |
| 20260507114202 | 49 | 274 | 0.9 | 6.1 | 0.00 | 0.01 | 0.00 | 87 | 1021.8 |
| 20260507113702 | 49 | 254 | 5.2 | 6.1 | 0.00 | 0.01 | 0.00 | 87 | 1021.8 |
| 20260507113202 | 49 | 236 | 0.0 | 6.1 | 0.00 | 0.01 | 0.00 | 87 | 1021.8 |
| 20260507112702 | 49 | 335 | 1.7 | 6.1 | 0.00 | 0.01 | 0.00 | 87 | 1021.8 |
| 20260507112202 | 49 | 284 | 2.6 | 6.1 | 0.00 | 0.01 | 0.00 | 87 | 1021.7 |
| 20260507111702 | 49 | 304 | 2.6 | 6.1 | 0.00 | 0.01 | 0.00 | 87 | 1021.8 |
| 20260507111202 | 49 | 266 | 5.2 | 7.8 | 0.00 | 0.01 | 0.00 | 87 | 1021.8 |
| 20260507110702 | 49 | 267 | 3.5 | 7.8 | 0.00 | 0.01 | 0.00 | 87 | 1021.8 |
| 20260507110201 | 49 | 294 | 2.6 | 4.3 | 0.00 | 0.01 | 0.00 | 87 | 1021.9 |
| 20260507105201 | 49 | 284 | 1.7 | 6.1 | 0.00 | 0.01 | 0.00 | 87 | 1021.8 |
| 20260507104701 | 49 | 263 | 1.7 | 6.1 | 0.00 | 0.01 | 0.00 | 87 | 1021.8 |
| 20260507104201 | 49 | 273 | 1.7 | 7.0 | 0.00 | 0.01 | 0.00 | 88 | 1021.7 |
| 20260507103701 | 49 | 263 | 4.3 | 7.8 | 0.00 | 0.01 | 0.00 | 88 | 1021.8 |
| 20260507103201 | 49 | 257 | 0.0 | 7.8 | 0.00 | 0.01 | 0.00 | 88 | 1021.8 |
| 20260507102701 | 49 | 283 | 2.6 | 4.3 | 0.00 | 0.01 | 0.00 | 88 | 1021.8 |
| 20260507102201 | 49 | 252 | 1.7 | 7.0 | 0.00 | 0.01 | 0.00 | 88 | 1021.8 |
| 20260507101701 | 49 | 302 | 2.6 | 7.8 | 0.00 | 0.01 | 0.00 | 88 | 1021.8 |
| 20260507101200 | 49 | 279 | 2.6 | 7.8 | 0.00 | 0.01 | 0.00 | 88 | 1021.8 |
| 20260507100700 | 49 | 294 | 0.9 | 5.2 | 0.00 | 0.01 | 0.00 | 88 | 1021.8 |
| 20260507100200 | 49 | 255 | 1.7 | 6.1 | 0.00 | 0.01 | 0.00 | 88 | 1021.7 |
| 20260507095200 | 49 | 290 | 1.7 | 6.1 | 0.00 | 0.01 | 0.00 | 88 | 1021.8 |
| 20260507094700 | 49 | 262 | 0.9 | 7.0 | 0.00 | 0.01 | 0.00 | 88 | 1021.8 |
| 20260507094200 | 49 | 283 | 1.7 | 9.6 | 0.00 | 0.01 | 0.00 | 88 | 1021.8 |
| 20260507093700 | 49 | 287 | 3.5 | 9.6 | 0.00 | 0.01 | 0.00 | 88 | 1021.8 |
| 20260507092200 | 50 | 239 | 3.5 | 8.7 | 0.00 | 0.01 | 0.00 | 88 | 1021.8 |
| 20260507091200 | 50 | 258 | 3.5 | 7.0 | 0.00 | 0.01 | 0.00 | 88 | 1021.8 |
| 20260507090659 | 50 | 268 | 1.7 | 7.0 | 0.00 | 0.01 | 0.00 | 88 | 1021.8 |
| 20260507090159 | 50 | 288 | 3.5 | 8.7 | 0.00 | 0.01 | 0.00 | 88 | 1021.8 |
| 20260507085659 | 50 | 243 | 1.7 | 8.7 | 0.00 | 0.01 | 0.00 | 88 | 1021.9 |
| 20260507084659 | 50 | 257 | 1.7 | 9.6 | 0.00 | 0.01 | 0.00 | 88 | 1022.0 |
| 20260507083659 | 50 | 252 | 3.5 | 6.1 | 0.00 | 0.01 | 0.00 | 88 | 1022.0 |
| 20260507083159 | 50 | 281 | 0.9 | 6.1 | 0.00 | 0.01 | 0.00 | 89 | 1022.0 |
| 20260507082659 | 50 | 278 | 0.9 | 5.2 | 0.00 | 0.01 | 0.00 | 89 | 1022.0 |
| 20260507082158 | 50 | 289 | 1.7 | 6.1 | 0.00 | 0.01 | 0.00 | 89 | 1021.9 |
| 20260507081659 | 50 | 302 | 1.7 | 6.1 | 0.00 | 0.01 | 0.00 | 90 | 1021.9 |
| 20260507081159 | 50 | 255 | 0.9 | 6.1 | 0.00 | 0.01 | 0.00 | 90 | 1022.0 |
| 20260507080659 | 50 | 244 | 1.7 | 6.1 | 0.00 | 0.01 | 0.00 | 90 | 1021.9 |
| 20260507075658 | 50 | 274 | 1.7 | 6.1 | 0.00 | 0.01 | 0.00 | 90 | 1022.0 |
| 20260507075158 | 51 | 279 | 1.7 | 6.1 | 0.00 | 0.01 | 0.00 | 90 | 1021.9 |
| 20260507074658 | 51 | 297 | 3.5 | 6.1 | 0.00 | 0.01 | 0.00 | 90 | 1021.8 |
| 20260507074157 | 51 | 258 | 2.6 | 6.1 | 0.00 | 0.01 | 0.00 | 89 | 1021.7 |
| 20260507073658 | 51 | 306 | 3.5 | 7.0 | 0.00 | 0.01 | 0.00 | 89 | 1021.7 |
| 20260507073158 | 51 | 256 | 0.9 | 7.0 | 0.00 | 0.01 | 0.00 | 88 | 1021.7 |
| 20260507072657 | 51 | 290 | 3.5 | 5.2 | 0.00 | 0.01 | 0.00 | 88 | 1021.7 |
| 20260507071658 | 51 | 264 | 2.6 | 5.2 | 0.00 | 0.01 | 0.00 | 88 | 1021.6 |
| 20260507071157 | 51 | 280 | 3.5 | 4.3 | 0.00 | 0.01 | 0.00 | 88 | 1021.6 |
| 20260507070659 | 51 | 328 | 0.0 | 4.3 | 0.00 | 0.01 | 0.00 | 89 | 1021.6 |
| 20260507070157 | 51 | 264 | 1.7 | 4.3 | 0.00 | 0.01 | 0.00 | 89 | 1021.6 |
| 20260507065657 | 51 | 262 | 0.9 | 4.3 | 0.00 | 0.01 | 0.01 | 89 | 1021.6 |
| 20260507065157 | 51 | 248 | 1.7 | 4.3 | 0.00 | 0.01 | 0.01 | 89 | 1021.5 |
| 20260507064657 | 51 | 263 | 1.7 | 3.5 | 0.00 | 0.01 | 0.01 | 89 | 1021.5 |
| 20260507064157 | 51 | 290 | 2.6 | 3.5 | 0.00 | 0.01 | 0.01 | 89 | 1021.5 |
| 20260507063656 | 51 | 279 | 1.7 | 3.5 | 0.00 | 0.01 | 0.01 | 89 | 1021.5 |
| 20260507063156 | 51 | 272 | 0.9 | 3.5 | 0.00 | 0.01 | 0.01 | 89 | 1021.4 |
| 20260507062657 | 51 | 267 | 2.6 | 5.2 | 0.00 | 0.01 | 0.01 | 89 | 1021.5 |
| 20260507062156 | 51 | 280 | 1.7 | 5.2 | 0.00 | 0.01 | 0.01 | 89 | 1021.5 |
| 20260507061156 | 51 | 299 | 0.0 | 4.3 | 0.00 | 0.01 | 0.01 | 89 | 1021.5 |
| 20260507060656 | 51 | 283 | 2.6 | 4.3 | 0.00 | 0.01 | 0.01 | 90 | 1021.6 |
| 20260507060156 | 51 | 267 | 0.9 | 5.2 | 0.00 | 0.01 | 0.01 | 90 | 1021.6 |
| 20260507055656 | 51 | 243 | 0.0 | 6.1 | 0.00 | 0.01 | 0.01 | 90 | 1021.6 |
| 20260507055156 | 51 | 269 | 5.2 | 6.1 | 0.00 | 0.01 | 0.01 | 90 | 1021.6 |
| 20260507054656 | 51 | 263 | 0.0 | 5.2 | 0.00 | 0.01 | 0.01 | 90 | 1021.7 |
| 20260507053656 | 51 | 250 | 1.7 | 7.0 | 0.00 | 0.01 | 0.01 | 90 | 1021.6 |
| 20260507053156 | 51 | 290 | 6.1 | 7.0 | 0.00 | 0.01 | 0.01 | 90 | 1021.6 |
| 20260507052656 | 51 | 257 | 2.6 | 5.2 | 0.00 | 0.01 | 0.01 | 90 | 1021.7 |
| 20260507052155 | 51 | 274 | 0.9 | 5.2 | 0.00 | 0.01 | 0.01 | 90 | 1021.6 |
| 20260507051655 | 51 | 249 | 2.6 | 7.0 | 0.00 | 0.01 | 0.01 | 90 | 1021.7 |
| 20260507051155 | 51 | 240 | 3.5 | 7.8 | 0.00 | 0.01 | 0.01 | 90 | 1021.8 |
| 20260507050155 | 51 | 283 | 6.1 | 6.1 | 0.00 | 0.01 | 0.01 | 90 | 1021.7 |
| 20260507045655 | 51 | 256 | 0.0 | 5.2 | 0.00 | 0.01 | 0.01 | 90 | 1021.8 |
| 20260507045156 | 51 | 261 | 1.7 | 5.2 | 0.00 | 0.01 | 0.01 | 90 | 1021.8 |
| 20260507044655 | 51 | 252 | 0.0 | 5.2 | 0.00 | 0.01 | 0.01 | 90 | 1021.7 |
| 20260507044154 | 51 | 297 | 0.9 | 4.3 | 0.00 | 0.01 | 0.01 | 89 | 1021.7 |
| 20260507043654 | 52 | 319 | 1.7 | 4.3 | 0.00 | 0.01 | 0.01 | 89 | 1021.7 |
| 20260507043154 | 52 | 264 | 2.6 | 4.3 | 0.00 | 0.01 | 0.01 | 89 | 1021.7 |
| 20260507042655 | 52 | 254 | 1.7 | 4.3 | 0.00 | 0.01 | 0.01 | 89 | 1021.7 |
| 20260507042155 | 52 | 251 | 0.0 | 5.2 | 0.00 | 0.01 | 0.01 | 88 | 1021.6 |